Location: Krakow
(50.0830°N, 19.9170°E)
Time: 07:44:47
(UTC+02:00)

Tiros 1 despin weight - Pass Details

Date: 18 March 2026
Orbit: 555 x 592 km, 48.2° (Epoch: 18 April)

Event Time Altitude Azimuth Distance (km) Brightness Sun altitude
Exits shadow 05:52:29 - 258° (WSW) 2,858 ? -0.1°
Rises 05:52:36 0° 258° (WSW) 2,815 ? -0.1°
Reaches altitude 10° 05:54:54 10° 256° (WSW) 1,911 ? 0.3°
Maximum altitude 05:59:15 67° 174° (S) 634 ? 1.0°
Drops below altitude 10° 06:03:33 10° 92° (E) 1,892 ? 1.7°
Sets 06:05:49 0° 90° (E) 2,785 ? 2.1°
